TimeEST,TemperatureF,Dew PointF,Humidity,Sea Level PressureIn,VisibilityMPH,Wind Direction,Wind SpeedMPH,Gust SpeedMPH,PrecipitationIn,Events,Conditions,WindDirDegrees,DateUTC
12:54 AM,32.0,28.0,85,30.21,10.0,Calm,Calm,-,N/A,,Partly Cloudy,0,2012-11-22 05:54:00
1:54 AM,30.9,27.0,85,30.22,10.0,SSW,3.5,-,N/A,,Partly Cloudy,210,2012-11-22 06:54:00
2:54 AM,33.1,27.0,78,30.22,10.0,SW,4.6,-,N/A,,Mostly Cloudy,230,2012-11-22 07:54:00
3:54 AM,34.0,27.0,75,30.22,10.0,SW,5.8,-,N/A,,Mostly Cloudy,220,2012-11-22 08:54:00
4:54 AM,34.0,27.0,75,30.21,10.0,SW,5.8,-,N/A,,Mostly Cloudy,230,2012-11-22 09:54:00
5:54 AM,33.1,26.1,75,30.21,10.0,SW,8.1,-,N/A,,Scattered Clouds,220,2012-11-22 10:54:00
6:54 AM,35.1,26.1,70,30.21,10.0,SSW,5.8,-,N/A,,Mostly Cloudy,210,2012-11-22 11:54:00
7:54 AM,36.0,27.0,70,30.22,10.0,SSW,6.9,-,N/A,,Scattered Clouds,210,2012-11-22 12:54:00
8:54 AM,43.0,28.0,56,30.21,10.0,SSW,8.1,-,N/A,,Partly Cloudy,210,2012-11-22 13:54:00
9:54 AM,46.9,28.9,50,30.20,10.0,SSW,8.1,-,N/A,,Partly Cloudy,210,2012-11-22 14:54:00
10:54 AM,52.0,30.0,43,30.18,10.0,SSW,6.9,-,N/A,,Partly Cloudy,200,2012-11-22 15:54:00
11:54 AM,55.9,30.9,39,30.16,10.0,SSW,6.9,-,N/A,,Partly Cloudy,210,2012-11-22 16:54:00
12:54 PM,59.0,33.1,38,30.14,10.0,SSW,5.8,-,N/A,,Partly Cloudy,210,2012-11-22 17:54:00
1:54 PM,60.1,36.0,41,30.12,10.0,SW,5.8,-,N/A,,Scattered Clouds,220,2012-11-22 18:54:00
2:54 PM,60.1,37.0,42,30.10,10.0,SSW,4.6,-,N/A,,Scattered Clouds,210,2012-11-22 19:54:00
3:54 PM,59.0,36.0,42,30.09,10.0,South,4.6,-,N/A,,Mostly Cloudy,190,2012-11-22 20:54:00
4:54 PM,57.0,35.1,44,30.09,10.0,South,3.5,-,N/A,,Mostly Cloudy,170,2012-11-22 21:54:00
5:54 PM,48.0,35.1,61,30.07,10.0,SSE,3.5,-,N/A,,Clear,150,2012-11-22 22:54:00
6:54 PM,43.0,35.1,74,30.07,10.0,Calm,Calm,-,N/A,,Clear,0,2012-11-22 23:54:00
7:54 PM,42.1,34.0,73,30.06,10.0,South,4.6,-,N/A,,Partly Cloudy,170,2012-11-23 00:54:00
8:54 PM,37.9,33.1,83,30.03,10.0,Calm,Calm,-,N/A,,Partly Cloudy,0,2012-11-23 01:54:00
9:54 PM,36.0,30.9,82,30.01,10.0,Calm,Calm,-,N/A,,Partly Cloudy,0,2012-11-23 02:54:00
10:54 PM,42.1,32.0,67,29.99,10.0,Calm,Calm,-,N/A,,Partly Cloudy,0,2012-11-23 03:54:00
11:54 PM,42.1,30.9,65,29.98,10.0,South,4.6,-,N/A,,Partly Cloudy,180,2012-11-23 04:54:00